Voltar ao catálogo

SHUNTIAN

AtivoCiênciaSSO
NORAD 44882·PAYLOAD·🇨🇳 China
Este nome de satélite ainda não foi confirmado por fontes oficiais.

Lançado Dec 20, 2019 de Taiyuan Satellite Launch Center

Loading…

Próximas Passagens (próximas 24 horas)

TLE

AtualizadoSource: Space-Track

Época: Sep 14, 2026, 13:39 UTC

1 44882U 19093D   26257.56906057  .00004942  00000-0  34131-3 0  9992
2 44882  97.7927 353.2749 0014659  82.1928 278.0962 15.06148260366065

Acompanhe SHUNTIAN em tempo real com AllMySat

Download on the App Store